2023-03-11T00:01:00,pth,3.60
2023-03-11T00:03:00,pth,2.40
2023-03-11T00:05:00,pth,1.20
2023-03-11T00:07:00,pth,2.40
2023-03-11T00:08:00,pth,1.20
2023-03-11T00:10:00,pth,1.20
2023-03-11T00:11:00,pth,1.20
2023-03-11T00:13:00,pth,3.60
2023-03-11T00:14:00,pth,1.20
2023-03-11T00:16:00,pth,3.60
2023-03-11T00:18:00,pth,4.80
2023-03-11T00:20:00,pth,3.60
2023-03-11T00:21:00,pth,2.40
2023-03-11T00:23:00,pth,3.60
2023-03-11T00:25:00,pth,3.60
2023-03-11T00:26:00,pth,1.20
2023-03-11T00:27:00,pth,1.20
2023-03-11T00:29:00,pth,2.40
2023-03-11T00:32:00,pth,2.40
2023-03-11T00:33:00,pth,1.20
2023-03-11T00:35:00,pth,2.40
2023-03-11T00:36:00,pth,1.20
2023-03-11T00:38:00,pth,3.60
2023-03-11T00:39:00,pth,2.40
2023-03-11T00:41:00,pth,3.60
2023-03-11T00:43:00,pth,3.60
2023-03-11T00:44:00,pth,2.40
2023-03-11T00:46:00,pth,4.80
2023-03-11T00:48:00,pth,3.60
2023-03-11T00:49:00,pth,2.40
2023-03-11T00:51:00,pth,3.60
2023-03-11T00:52:00,pth,1.20
2023-03-11T00:54:00,pth,1.20
2023-03-11T00:55:00,pth,1.20
2023-03-11T00:57:00,pth,1.20
2023-03-11T00:58:00,pth,1.20
2023-03-11T00:59:00,pth,1.20
2023-03-11T01:01:00,pth,1.20
2023-03-11T01:03:00,pth,3.60
2023-03-11T01:04:00,pth,1.20
2023-03-11T01:06:00,pth,4.80
2023-03-11T01:07:00,pth,2.40
2023-03-11T01:09:00,pth,3.60
2023-03-11T01:11:00,pth,4.80
2023-03-11T01:12:00,pth,1.20
2023-03-11T01:13:00,pth,2.40
2023-03-11T01:15:00,pth,3.60
2023-03-11T01:16:00,pth,2.40
2023-03-11T01:19:00,pth,2.40
2023-03-11T01:20:00,pth,1.20
2023-03-11T01:22:00,pth,1.20
2023-03-11T01:24:00,pth,2.40
2023-03-11T01:25:00,pth,1.20
2023-03-11T01:28:00,pth,3.60
2023-03-11T01:29:00,pth,1.20
2023-03-11T01:31:00,pth,3.60
2023-03-11T01:33:00,pth,4.80
2023-03-11T01:35:00,pth,3.60
2023-03-11T01:37:00,pth,3.60
2023-03-11T01:39:00,pth,3.60
2023-03-11T01:40:00,pth,2.40
2023-03-11T01:42:00,pth,3.60
2023-03-11T01:44:00,pth,2.40
2023-03-11T01:47:00,pth,2.40
2023-03-11T01:49:00,pth,1.20
2023-03-11T01:50:00,pth,1.20
2023-03-11T01:51:00,pth,1.20
2023-03-11T01:53:00,pth,2.40
2023-03-11T01:54:00,pth,1.20
2023-03-11T01:56:00,pth,3.60
2023-03-11T01:58:00,pth,4.80
2023-03-11T02:00:00,pth,3.60
2023-03-11T02:02:00,pth,3.60
2023-03-11T02:04:00,pth,4.80
2023-03-11T02:06:00,pth,3.60
2023-03-11T02:07:00,pth,1.20
2023-03-11T02:09:00,pth,1.20
2023-03-11T02:11:00,pth,2.40
2023-03-11T02:13:00,pth,1.20
2023-03-11T02:14:00,pth,1.20
2023-03-11T02:16:00,pth,1.20
2023-03-11T02:18:00,pth,3.60
2023-03-11T02:20:00,pth,3.60
2023-03-11T02:22:00,pth,3.60
2023-03-11T02:24:00,pth,3.60
2023-03-11T02:26:00,pth,4.80
2023-03-11T02:27:00,pth,1.20
2023-03-11T02:29:00,pth,3.60
2023-03-11T02:30:00,pth,2.40
2023-03-11T02:32:00,pth,2.40
2023-03-11T02:33:00,pth,1.20
2023-03-11T02:35:00,pth,2.40
2023-03-11T02:37:00,pth,1.20
2023-03-11T02:39:00,pth,2.40
2023-03-11T02:41:00,pth,2.40
2023-03-11T02:42:00,pth,1.20
2023-03-11T02:44:00,pth,4.80
2023-03-11T02:46:00,pth,3.60
2023-03-11T02:47:00,pth,2.40
2023-03-11T02:49:00,pth,3.60
2023-03-11T02:51:00,pth,3.60
2023-03-11T02:52:00,pth,2.40
2023-03-11T02:54:00,pth,3.60
2023-03-11T02:55:00,pth,1.20
2023-03-11T02:57:00,pth,2.40
2023-03-11T02:58:00,pth,1.20
2023-03-11T03:00:00,pth,1.20
2023-03-11T03:02:00,pth,1.20
2023-03-11T03:04:00,pth,2.40
2023-03-11T03:06:00,pth,1.20
2023-03-11T03:07:00,pth,2.40
2023-03-11T03:09:00,pth,3.60
2023-03-11T03:10:00,pth,1.20
2023-03-11T03:12:00,pth,3.60
2023-03-11T03:14:00,pth,3.60
2023-03-11T03:16:00,pth,4.80
2023-03-11T03:17:00,pth,1.20
2023-03-11T03:19:00,pth,3.60
2023-03-11T03:21:00,pth,3.60
2023-03-11T03:22:00,pth,1.20
2023-03-11T03:24:00,pth,2.40
2023-03-11T03:25:00,pth,1.20
2023-03-11T03:27:00,pth,1.20
2023-03-11T03:29:00,pth,2.40
2023-03-11T03:31:00,pth,1.20
2023-03-11T03:33:00,pth,3.60
2023-03-11T03:34:00,pth,1.20
2023-03-11T03:35:00,pth,2.40
2023-03-11T03:37:00,pth,3.60
2023-03-11T03:38:00,pth,2.40
2023-03-11T03:40:00,pth,3.60
2023-03-11T03:41:00,pth,2.40
2023-03-11T03:43:00,pth,3.60
2023-03-11T03:44:00,pth,1.20
2023-03-11T03:46:00,pth,3.60
2023-03-11T03:49:00,pth,2.40
2023-03-11T03:50:00,pth,1.20
2023-03-11T03:52:00,pth,1.20
2023-03-11T03:54:00,pth,2.40
2023-03-11T03:55:00,pth,1.20
2023-03-11T03:56:00,pth,1.20
2023-03-11T03:57:00,pth,1.20
2023-03-11T03:59:00,pth,4.80
2023-03-11T04:01:00,pth,3.60
2023-03-11T04:03:00,pth,3.60
2023-03-11T04:04:00,pth,2.40
2023-03-11T04:06:00,pth,3.60
2023-03-11T04:07:00,pth,2.40
2023-03-11T04:09:00,pth,3.60
2023-03-11T04:11:00,pth,3.60
2023-03-11T04:13:00,pth,2.40
2023-03-11T04:14:00,pth,1.20
2023-03-11T04:16:00,pth,2.40
2023-03-11T04:18:00,pth,1.20
2023-03-11T04:20:00,pth,2.40
2023-03-11T04:22:00,pth,2.40
2023-03-11T04:23:00,pth,2.40
2023-03-11T04:24:00,pth,2.40
2023-03-11T04:25:00,pth,1.20
2023-03-11T04:27:00,pth,4.80
2023-03-11T04:28:00,pth,2.40
2023-03-11T04:30:00,pth,3.60
2023-03-11T04:32:00,pth,3.60
2023-03-11T04:33:00,pth,2.40
2023-03-11T04:35:00,pth,3.60
2023-03-11T04:36:00,pth,1.20
2023-03-11T04:38:00,pth,2.40
2023-03-11T04:39:00,pth,1.20
2023-03-11T04:41:00,pth,2.40
2023-03-11T04:43:00,pth,1.20
2023-03-11T04:44:00,pth,1.20
2023-03-11T04:46:00,pth,2.40
2023-03-11T04:47:00,pth,2.40
2023-03-11T04:49:00,pth,3.60
2023-03-11T04:51:00,pth,3.60
2023-03-11T04:52:00,pth,1.20
2023-03-11T04:53:00,pth,2.40
2023-03-11T04:54:00,pth,2.40
2023-03-11T04:56:00,pth,3.60
2023-03-11T04:57:00,pth,1.20
2023-03-11T04:58:00,pth,2.40
2023-03-11T05:00:00,pth,2.40
2023-03-11T05:01:00,pth,1.20
2023-03-11T05:03:00,pth,1.20
2023-03-11T05:05:00,pth,2.40
2023-03-11T05:08:00,pth,2.40
2023-03-11T05:09:00,pth,1.20
2023-03-11T05:11:00,pth,3.60
2023-03-11T05:12:00,pth,2.40
2023-03-11T05:14:00,pth,3.60
2023-03-11T05:15:00,pth,1.20
2023-03-11T05:17:00,pth,3.60
2023-03-11T05:19:00,pth,3.60
2023-03-11T05:21:00,pth,3.60
2023-03-11T05:22:00,pth,2.40
2023-03-11T05:24:00,pth,2.40
2023-03-11T05:26:00,pth,2.40
2023-03-11T05:28:00,pth,1.20
2023-03-11T05:30:00,pth,2.40
2023-03-11T05:32:00,pth,1.20
2023-03-11T05:34:00,pth,2.40
2023-03-11T05:36:00,pth,3.60
2023-03-11T05:38:00,pth,4.80
2023-03-11T05:40:00,pth,3.60
2023-03-11T05:41:00,pth,2.40
2023-03-11T05:43:00,pth,3.60
2023-03-11T05:45:00,pth,3.60
2023-03-11T05:47:00,pth,3.60
2023-03-11T05:49:00,pth,2.40
2023-03-11T05:51:00,pth,1.20
2023-03-11T05:52:00,pth,1.20
2023-03-11T05:53:00,pth,1.20
2023-03-11T05:56:00,pth,2.40
2023-03-11T05:57:00,pth,1.20
2023-03-11T05:59:00,pth,3.60
2023-03-11T06:01:00,pth,3.60
2023-03-11T06:02:00,pth,2.40
2023-03-11T06:04:00,pth,3.60
2023-03-11T06:05:00,pth,2.40
2023-03-11T06:07:00,pth,3.60
2023-03-11T06:09:00,pth,3.60
2023-03-11T06:11:00,pth,3.60
2023-03-11T06:12:00,pth,1.20
2023-03-11T06:14:00,pth,2.40
2023-03-11T06:16:00,pth,1.20
2023-03-11T06:18:00,pth,2.40
2023-03-11T06:20:00,pth,2.40
2023-03-11T06:21:00,pth,1.20
2023-03-11T06:23:00,pth,3.60
2023-03-11T06:24:00,pth,2.40
2023-03-11T06:25:00,pth,1.20
2023-03-11T06:27:00,pth,3.60
2023-03-11T06:29:00,pth,3.60
2023-03-11T06:31:00,pth,3.60
2023-03-11T06:32:00,pth,1.20
2023-03-11T06:34:00,pth,3.60
2023-03-11T06:35:00,pth,1.20
2023-03-11T06:37:00,pth,2.40
2023-03-11T06:39:00,pth,1.20
2023-03-11T06:40:00,pth,1.20
2023-03-11T06:42:00,pth,1.20
2023-03-11T06:44:00,pth,2.40
2023-03-11T06:46:00,pth,3.60
2023-03-11T06:48:00,pth,3.60
2023-03-11T06:50:00,pth,3.60
2023-03-11T06:52:00,pth,3.60
2023-03-11T06:53:00,pth,2.40
2023-03-11T06:54:00,pth,1.20
2023-03-11T06:56:00,pth,3.60
2023-03-11T06:58:00,pth,4.80
2023-03-11T06:59:00,pth,1.20
2023-03-11T07:00:00,pth,1.20
2023-03-11T07:02:00,pth,1.20
2023-03-11T07:05:00,pth,2.40
2023-03-11T07:07:00,pth,1.20
2023-03-11T07:09:00,pth,2.40
2023-03-11T07:11:00,pth,3.60
2023-03-11T07:13:00,pth,3.60
2023-03-11T07:14:00,pth,2.40
2023-03-11T07:15:00,pth,1.20
2023-03-11T07:17:00,pth,3.60
2023-03-11T07:18:00,pth,2.40
2023-03-11T07:20:00,pth,3.60
2023-03-11T07:22:00,pth,3.60
2023-03-11T07:24:00,pth,2.40
2023-03-11T07:27:00,pth,2.40
2023-03-11T07:28:00,pth,1.20
2023-03-11T07:30:00,pth,2.40
2023-03-11T07:32:00,pth,4.80
2023-03-11T07:34:00,pth,7.20
2023-03-11T07:36:00,pth,4.80
2023-03-11T07:37:00,pth,1.20
2023-03-11T07:39:00,pth,4.80
2023-03-11T07:40:00,pth,2.40
2023-03-11T07:42:00,pth,3.60
2023-03-11T07:43:00,pth,2.40
2023-03-11T07:45:00,pth,3.60
2023-03-11T07:47:00,pth,4.80
2023-03-11T07:48:00,pth,2.40
2023-03-11T07:50:00,pth,3.60
2023-03-11T07:52:00,pth,2.40
2023-03-11T07:54:00,pth,2.40
2023-03-11T07:55:00,pth,1.20
2023-03-11T07:57:00,pth,3.60
2023-03-11T07:58:00,pth,1.20
2023-03-11T08:00:00,pth,3.60
2023-03-11T08:01:00,pth,2.40
2023-03-11T08:03:00,pth,4.80
2023-03-11T08:04:00,pth,2.40
2023-03-11T08:06:00,pth,4.80
2023-03-11T08:08:00,pth,3.60
2023-03-11T08:09:00,pth,2.40
2023-03-11T08:11:00,pth,3.60
2023-03-11T08:12:00,pth,1.20
2023-03-11T08:14:00,pth,3.60
2023-03-11T08:16:00,pth,3.60
2023-03-11T08:18:00,pth,1.20
2023-03-11T08:19:00,pth,1.20
2023-03-11T08:21:00,pth,1.20
2023-03-11T08:23:00,pth,2.40
2023-03-11T08:24:00,pth,1.20
2023-03-11T08:26:00,pth,4.80
2023-03-11T08:27:00,pth,2.40
2023-03-11T08:29:00,pth,3.60
2023-03-11T08:30:00,pth,1.20
2023-03-11T08:32:00,pth,3.60
2023-03-11T08:34:00,pth,4.80
2023-03-11T08:36:00,pth,3.60
2023-03-11T08:37:00,pth,1.20
2023-03-11T08:39:00,pth,3.60
2023-03-11T08:40:00,pth,1.20
2023-03-11T08:42:00,pth,1.20
2023-03-11T08:44:00,pth,2.40
2023-03-11T08:47:00,pth,2.40
2023-03-11T08:49:00,pth,2.40
2023-03-11T08:50:00,pth,2.40
2023-03-11T08:52:00,pth,3.60
2023-03-11T08:54:00,pth,4.80
2023-03-11T08:56:00,pth,3.60
2023-03-11T08:58:00,pth,3.60
2023-03-11T08:59:00,pth,2.40
2023-03-11T09:01:00,pth,3.60
2023-03-11T09:03:00,pth,3.60
2023-03-11T09:05:00,pth,3.60
2023-03-11T09:06:00,pth,1.20
2023-03-11T09:07:00,pth,1.20
2023-03-11T09:09:00,pth,1.20
2023-03-11T09:11:00,pth,1.20
2023-03-11T09:13:00,pth,1.20
2023-03-11T09:14:00,pth,1.20
2023-03-11T09:16:00,pth,3.60
2023-03-11T09:17:00,pth,1.20
2023-03-11T09:19:00,pth,3.60
2023-03-11T09:20:00,pth,2.40
2023-03-11T09:21:00,pth,1.20
2023-03-11T09:23:00,pth,4.80
2023-03-11T09:25:00,pth,3.60
2023-03-11T09:27:00,pth,3.60
2023-03-11T09:28:00,pth,2.40
2023-03-11T09:30:00,pth,3.60
2023-03-11T09:31:00,pth,1.20
2023-03-11T09:32:00,pth,1.20
2023-03-11T09:34:00,pth,2.40
2023-03-11T09:37:00,pth,2.40
2023-03-11T09:38:00,pth,1.20
2023-03-11T09:40:00,pth,2.40
2023-03-11T09:41:00,pth,1.20
2023-03-11T09:43:00,pth,3.60
2023-03-11T09:45:00,pth,3.60
2023-03-11T09:47:00,pth,4.80
2023-03-11T09:48:00,pth,1.20
2023-03-11T09:50:00,pth,3.60
2023-03-11T09:52:00,pth,4.80
2023-03-11T09:53:00,pth,1.20
2023-03-11T09:54:00,pth,1.20
2023-03-11T09:56:00,pth,2.40
2023-03-11T09:58:00,pth,1.20
2023-03-11T10:00:00,pth,1.20
2023-03-11T10:02:00,pth,2.40
2023-03-11T10:04:00,pth,2.40
2023-03-11T10:05:00,pth,1.20
2023-03-11T10:07:00,pth,4.80
2023-03-11T10:08:00,pth,1.20
2023-03-11T10:09:00,pth,2.40
2023-03-11T10:11:00,pth,3.60
2023-03-11T10:13:00,pth,3.60
2023-03-11T10:14:00,pth,1.20
2023-03-11T10:16:00,pth,3.60
2023-03-11T10:17:00,pth,2.40
2023-03-11T10:19:00,pth,2.40
2023-03-11T10:22:00,pth,2.40
2023-03-11T10:23:00,pth,1.20
2023-03-11T10:25:00,pth,1.20
2023-03-11T10:27:00,pth,1.20
2023-03-11T10:29:00,pth,3.60
2023-03-11T10:30:00,pth,1.20
2023-03-11T10:32:00,pth,3.60
2023-03-11T10:34:00,pth,3.60
2023-03-11T10:36:00,pth,3.60
2023-03-11T10:37:00,pth,1.20
2023-03-11T10:39:00,pth,3.60
2023-03-11T10:40:00,pth,2.40
2023-03-11T10:42:00,pth,2.40
2023-03-11T10:43:00,pth,1.20
2023-03-11T10:45:00,pth,1.20
2023-03-11T10:47:00,pth,1.20
2023-03-11T10:48:00,pth,1.20
2023-03-11T10:50:00,pth,1.20
2023-03-11T10:51:00,pth,1.20
2023-03-11T10:53:00,pth,3.60
2023-03-11T10:55:00,pth,3.60
2023-03-11T10:56:00,pth,1.20
2023-03-11T10:57:00,pth,2.40
2023-03-11T10:59:00,pth,3.60
2023-03-11T11:00:00,pth,2.40
2023-03-11T11:02:00,pth,3.60
2023-03-11T11:04:00,pth,3.60
2023-03-11T11:05:00,pth,2.40
2023-03-11T11:07:00,pth,2.40
2023-03-11T11:08:00,pth,1.20
2023-03-11T11:09:00,pth,1.20
2023-03-11T11:11:00,pth,1.20
2023-03-11T11:13:00,pth,1.20
2023-03-11T11:15:00,pth,2.40
2023-03-11T11:17:00,pth,3.60
2023-03-11T11:19:00,pth,3.60
2023-03-11T11:21:00,pth,3.60
2023-03-11T11:22:00,pth,1.20
2023-03-11T11:24:00,pth,4.80
2023-03-11T11:26:00,pth,3.60
2023-03-11T11:27:00,pth,1.20
2023-03-11T11:28:00,pth,2.40
2023-03-11T11:30:00,pth,7.20
2023-03-11T11:32:00,pth,4.80
2023-03-11T11:34:00,pth,2.40
2023-03-11T11:36:00,pth,2.40
2023-03-11T11:38:00,pth,2.40
2023-03-11T11:40:00,pth,1.20
2023-03-11T11:41:00,pth,1.20
2023-03-11T11:43:00,pth,3.60
2023-03-11T11:45:00,pth,3.60
2023-03-11T11:47:00,pth,3.60
2023-03-11T11:49:00,pth,3.60
2023-03-11T11:50:00,pth,1.20
2023-03-11T11:52:00,pth,3.60
2023-03-11T11:53:00,pth,2.40
2023-03-11T11:55:00,pth,2.40
2023-03-11T11:57:00,pth,2.40
2023-03-11T11:59:00,pth,1.20
2023-03-11T12:01:00,pth,2.40
2023-03-11T12:04:00,pth,2.40
2023-03-11T12:06:00,pth,3.60
2023-03-11T12:07:00,pth,2.40
2023-03-11T12:09:00,pth,3.60
2023-03-11T12:11:00,pth,3.60
2023-03-11T12:13:00,pth,3.60
2023-03-11T12:15:00,pth,4.80
2023-03-11T12:16:00,pth,1.20
2023-03-11T12:18:00,pth,2.40
2023-03-11T12:20:00,pth,2.40
2023-03-11T12:21:00,pth,1.20
2023-03-11T12:22:00,pth,1.20
2023-03-11T12:24:00,pth,2.40
2023-03-11T12:27:00,pth,2.40
2023-03-11T12:29:00,pth,3.60
2023-03-11T12:30:00,pth,1.20
2023-03-11T12:32:00,pth,3.60
2023-03-11T12:33:00,pth,2.40
2023-03-11T12:35:00,pth,3.60
2023-03-11T12:37:00,pth,3.60
2023-03-11T12:38:00,pth,1.20
2023-03-11T12:39:00,pth,2.40
2023-03-11T12:41:00,pth,2.40
2023-03-11T12:42:00,pth,1.20
2023-03-11T12:44:00,pth,2.40
2023-03-11T12:46:00,pth,1.20
2023-03-11T12:47:00,pth,1.20
2023-03-11T12:49:00,pth,2.40
2023-03-11T12:50:00,pth,2.40
2023-03-11T12:52:00,pth,4.80
2023-03-11T12:53:00,pth,2.40
2023-03-11T12:54:00,pth,2.40
2023-03-11T12:55:00,pth,2.40
2023-03-11T12:57:00,pth,4.80
2023-03-11T12:58:00,pth,2.40
2023-03-11T13:00:00,pth,4.80
2023-03-11T13:02:00,pth,4.80
2023-03-11T13:03:00,pth,2.40
2023-03-11T13:05:00,pth,2.40
2023-03-11T13:07:00,pth,3.60
2023-03-11T13:09:00,pth,2.40
2023-03-11T13:11:00,pth,2.40
2023-03-11T13:13:00,pth,2.40
2023-03-11T13:14:00,pth,1.20
2023-03-11T13:15:00,pth,1.20
2023-03-11T13:17:00,pth,4.80
2023-03-11T13:19:00,pth,4.80
2023-03-11T13:21:00,pth,4.80
2023-03-11T13:22:00,pth,2.40
2023-03-11T13:24:00,pth,3.60
2023-03-11T13:26:00,pth,4.80
2023-03-11T13:27:00,pth,2.40
2023-03-11T13:29:00,pth,3.60
2023-03-11T13:31:00,pth,2.40
2023-03-11T13:33:00,pth,3.60
2023-03-11T13:34:00,pth,1.20
2023-03-11T13:36:00,pth,3.60
2023-03-11T13:38:00,pth,3.60
2023-03-11T13:40:00,pth,6.00
2023-03-11T13:42:00,pth,7.20
2023-03-11T13:44:00,pth,8.40
2023-03-11T13:46:00,pth,6.00
2023-03-11T13:47:00,pth,3.60
2023-03-11T13:49:00,pth,6.00
2023-03-11T13:50:00,pth,2.40
2023-03-11T13:52:00,pth,6.00
2023-03-11T13:53:00,pth,1.20
2023-03-11T13:55:00,pth,3.60
2023-03-11T13:57:00,pth,4.80
2023-03-11T13:59:00,pth,2.40
2023-03-11T14:01:00,pth,3.60
2023-03-11T14:03:00,pth,7.20
2023-03-11T14:04:00,pth,3.60
2023-03-11T14:06:00,pth,4.80
2023-03-11T14:08:00,pth,4.80
2023-03-11T14:09:00,pth,2.40
2023-03-11T14:11:00,pth,4.80
2023-03-11T14:12:00,pth,1.20
2023-03-11T14:14:00,pth,13.20
2023-03-11T14:15:00,pth,7.20
2023-03-11T14:17:00,pth,14.40
2023-03-11T14:19:00,pth,16.80
2023-03-11T14:20:00,pth,8.40
2023-03-11T14:22:00,pth,15.60
2023-03-11T14:23:00,pth,7.20
2023-03-11T14:25:00,pth,16.80
2023-03-11T14:27:00,pth,15.60
2023-03-11T14:29:00,pth,15.60
2023-03-11T14:31:00,pth,16.80
2023-03-11T14:33:00,pth,15.60
2023-03-11T14:35:00,pth,15.60
2023-03-11T14:36:00,pth,8.40
2023-03-11T14:37:00,pth,8.40
2023-03-11T14:39:00,pth,15.60
2023-03-11T14:40:00,pth,8.40
2023-03-11T14:42:00,pth,15.60
2023-03-11T14:44:00,pth,9.60
2023-03-11T14:45:00,pth,8.40
2023-03-11T14:46:00,pth,8.40
2023-03-11T14:48:00,pth,9.60
2023-03-11T14:49:00,pth,4.80
2023-03-11T14:51:00,pth,14.40
2023-03-11T14:53:00,pth,9.60
2023-03-11T14:55:00,pth,13.20
2023-03-11T14:56:00,pth,2.40
2023-03-11T14:58:00,pth,15.60
2023-03-11T14:59:00,pth,7.20
2023-03-11T15:01:00,pth,4.80
2023-03-11T15:03:00,pth,3.60
2023-03-11T15:04:00,pth,2.40
2023-03-11T15:06:00,pth,6.00
2023-03-11T15:07:00,pth,2.40
2023-03-11T15:09:00,pth,3.60
2023-03-11T15:11:00,pth,3.60
2023-03-11T15:13:00,pth,2.40
2023-03-11T15:14:00,pth,1.20
2023-03-11T15:16:00,pth,1.20
2023-03-11T15:18:00,pth,2.40
2023-03-11T15:20:00,pth,1.20
2023-03-11T15:22:00,pth,2.40
2023-03-11T15:23:00,pth,1.20
2023-03-11T15:24:00,pth,1.20
2023-03-11T15:26:00,pth,3.60
2023-03-11T15:28:00,pth,3.60
2023-03-11T15:30:00,pth,3.60
2023-03-11T15:31:00,pth,2.40
2023-03-11T15:33:00,pth,4.80
2023-03-11T15:35:00,pth,4.80
2023-03-11T15:36:00,pth,2.40
2023-03-11T15:38:00,pth,4.80
2023-03-11T15:39:00,pth,4.80
2023-03-11T15:40:00,pth,2.40
2023-03-11T15:42:00,pth,2.40
2023-03-11T15:43:00,pth,1.20
2023-03-11T15:45:00,pth,1.20
2023-03-11T15:47:00,pth,2.40
2023-03-11T15:48:00,pth,1.20
2023-03-11T15:50:00,pth,1.20
2023-03-11T15:52:00,pth,2.40
2023-03-11T15:54:00,pth,2.40
2023-03-11T15:55:00,pth,1.20
2023-03-11T15:57:00,pth,3.60
2023-03-11T15:59:00,pth,4.80
2023-03-11T16:01:00,pth,3.60
2023-03-11T16:03:00,pth,4.80
2023-03-11T16:05:00,pth,2.40
2023-03-11T16:07:00,pth,2.40
2023-03-11T16:09:00,pth,2.40
2023-03-11T16:11:00,pth,2.40
2023-03-11T16:13:00,pth,2.40
2023-03-11T16:15:00,pth,2.40
2023-03-11T16:17:00,pth,2.40
2023-03-11T16:18:00,pth,1.20
2023-03-11T16:20:00,pth,2.40
2023-03-11T16:22:00,pth,4.80
2023-03-11T16:23:00,pth,1.20
2023-03-11T16:25:00,pth,4.80
2023-03-11T16:27:00,pth,3.60
2023-03-11T16:29:00,pth,4.80
2023-03-11T16:31:00,pth,1.20
2023-03-11T16:32:00,pth,1.20
2023-03-11T16:34:00,pth,2.40
2023-03-11T16:36:00,pth,1.20
2023-03-11T16:38:00,pth,2.40
2023-03-11T16:39:00,pth,1.20
2023-03-11T16:42:00,pth,2.40
2023-03-11T16:43:00,pth,1.20
2023-03-11T16:44:00,pth,2.40
2023-03-11T16:46:00,pth,3.60
2023-03-11T16:47:00,pth,2.40
2023-03-11T16:49:00,pth,3.60
2023-03-11T16:51:00,pth,3.60
2023-03-11T16:53:00,pth,2.40
2023-03-11T16:54:00,pth,2.40
2023-03-11T16:56:00,pth,1.20
2023-03-11T16:57:00,pth,1.20
2023-03-11T16:59:00,pth,1.20
2023-03-11T17:00:00,pth,1.20
2023-03-11T17:02:00,pth,1.20
2023-03-11T17:03:00,pth,1.20
2023-03-11T17:05:00,pth,2.40
2023-03-11T17:07:00,pth,1.20
2023-03-11T17:09:00,pth,3.60
2023-03-11T17:11:00,pth,3.60
2023-03-11T17:13:00,pth,4.80
2023-03-11T17:14:00,pth,1.20
2023-03-11T17:16:00,pth,4.80
2023-03-11T17:17:00,pth,1.20
2023-03-11T17:19:00,pth,3.60
2023-03-11T17:21:00,pth,2.40
2023-03-11T17:23:00,pth,1.20
2023-03-11T17:25:00,pth,2.40
2023-03-11T17:27:00,pth,2.40
2023-03-11T17:29:00,pth,1.20
2023-03-11T17:31:00,pth,1.20
2023-03-11T17:33:00,pth,2.40
2023-03-11T17:35:00,pth,3.60
2023-03-11T17:37:00,pth,4.80
2023-03-11T17:39:00,pth,3.60
2023-03-11T17:40:00,pth,2.40
2023-03-11T17:42:00,pth,3.60
2023-03-11T17:44:00,pth,3.60
2023-03-11T17:46:00,pth,2.40
2023-03-11T17:48:00,pth,2.40
2023-03-11T17:50:00,pth,2.40
2023-03-11T17:51:00,pth,1.20
2023-03-11T17:52:00,pth,1.20
2023-03-11T17:53:00,pth,1.20
2023-03-11T17:55:00,pth,2.40
2023-03-11T17:58:00,pth,3.60
2023-03-11T18:00:00,pth,4.80
2023-03-11T18:01:00,pth,2.40
2023-03-11T18:03:00,pth,3.60
2023-03-11T18:05:00,pth,4.80
2023-03-11T18:07:00,pth,3.60
2023-03-11T18:09:00,pth,4.80
2023-03-11T18:11:00,pth,2.40
2023-03-11T18:13:00,pth,3.60
2023-03-11T18:15:00,pth,2.40
2023-03-11T18:17:00,pth,2.40
2023-03-11T18:18:00,pth,1.20
2023-03-11T18:20:00,pth,2.40
2023-03-11T18:22:00,pth,3.60
2023-03-11T18:23:00,pth,2.40
2023-03-11T18:24:00,pth,2.40
2023-03-11T18:25:00,pth,3.60
2023-03-11T18:26:00,pth,3.60
2023-03-11T18:27:00,pth,2.40
2023-03-11T18:29:00,pth,4.80
2023-03-11T18:30:00,pth,2.40
2023-03-11T18:31:00,pth,2.40
2023-03-11T18:33:00,pth,3.60
2023-03-11T18:35:00,pth,3.60
2023-03-11T18:37:00,pth,2.40
2023-03-11T18:38:00,pth,1.20
2023-03-11T18:39:00,pth,1.20
2023-03-11T18:41:00,pth,3.60
2023-03-11T18:42:00,pth,1.20
2023-03-11T18:44:00,pth,2.40
2023-03-11T18:45:00,pth,1.20
2023-03-11T18:47:00,pth,2.40
2023-03-11T18:49:00,pth,4.80
2023-03-11T18:51:00,pth,4.80
2023-03-11T18:52:00,pth,2.40
2023-03-11T18:54:00,pth,4.80
2023-03-11T18:56:00,pth,6.00
2023-03-11T18:58:00,pth,4.80
2023-03-11T18:59:00,pth,2.40
2023-03-11T19:01:00,pth,2.40
2023-03-11T19:03:00,pth,2.40
2023-03-11T19:05:00,pth,2.40
2023-03-11T19:06:00,pth,1.20
2023-03-11T19:08:00,pth,3.60
2023-03-11T19:09:00,pth,1.20
2023-03-11T19:11:00,pth,2.40
2023-03-11T19:12:00,pth,1.20
2023-03-11T19:13:00,pth,2.40
2023-03-11T19:15:00,pth,3.60
2023-03-11T19:16:00,pth,3.60
2023-03-11T19:18:00,pth,16.80
2023-03-11T19:19:00,pth,8.40
2023-03-11T19:21:00,pth,16.80
2023-03-11T19:22:00,pth,7.20
2023-03-11T19:24:00,pth,16.80
2023-03-11T19:25:00,pth,7.20
2023-03-11T19:26:00,pth,8.40
2023-03-11T19:28:00,pth,15.60
2023-03-11T19:29:00,pth,8.40
2023-03-11T19:31:00,pth,15.60
2023-03-11T19:33:00,pth,15.60
2023-03-11T19:35:00,pth,15.60
2023-03-11T19:37:00,pth,14.40
2023-03-11T19:38:00,pth,7.20
2023-03-11T19:40:00,pth,15.60
2023-03-11T19:41:00,pth,7.20
2023-03-11T19:43:00,pth,14.40
2023-03-11T19:45:00,pth,15.60
2023-03-11T19:46:00,pth,7.20
2023-03-11T19:48:00,pth,16.80
2023-03-11T19:49:00,pth,8.40
2023-03-11T19:50:00,pth,9.60
2023-03-11T19:52:00,pth,16.80
2023-03-11T19:53:00,pth,7.20
2023-03-11T19:55:00,pth,15.60
2023-03-11T19:56:00,pth,8.40
2023-03-11T19:58:00,pth,18.00
2023-03-11T19:59:00,pth,8.40
2023-03-11T20:00:00,pth,7.20
2023-03-11T20:02:00,pth,14.40
2023-03-11T20:04:00,pth,15.60
2023-03-11T20:05:00,pth,8.40
2023-03-11T20:07:00,pth,14.40
2023-03-11T20:08:00,pth,8.40
2023-03-11T20:10:00,pth,14.40
2023-03-11T20:12:00,pth,15.60
2023-03-11T20:13:00,pth,7.20
2023-03-11T20:15:00,pth,14.40
2023-03-11T20:16:00,pth,2.40
2023-03-11T20:18:00,pth,3.60
2023-03-11T20:20:00,pth,4.80
2023-03-11T20:22:00,pth,4.80
2023-03-11T20:24:00,pth,4.80
2023-03-11T20:25:00,pth,3.60
2023-03-11T20:27:00,pth,7.20
2023-03-11T20:29:00,pth,12.00
2023-03-11T20:30:00,pth,3.60
2023-03-11T20:32:00,pth,7.20
2023-03-11T20:33:00,pth,2.40
2023-03-11T20:34:00,pth,3.60
2023-03-11T20:35:00,pth,3.60
2023-03-11T20:36:00,pth,3.60
2023-03-11T20:38:00,pth,7.20
2023-03-11T20:39:00,pth,3.60
2023-03-11T20:41:00,pth,8.40
2023-03-11T20:42:00,pth,3.60
2023-03-11T20:44:00,pth,9.60
2023-03-11T20:45:00,pth,3.60
2023-03-11T20:47:00,pth,9.60
2023-03-11T20:49:00,pth,9.60
2023-03-11T20:50:00,pth,3.60
2023-03-11T20:51:00,pth,4.80
2023-03-11T20:53:00,pth,9.60
2023-03-11T20:54:00,pth,4.80
2023-03-11T20:55:00,pth,3.60
2023-03-11T20:57:00,pth,7.20
2023-03-11T20:59:00,pth,6.00
2023-03-11T21:01:00,pth,7.20
2023-03-11T21:02:00,pth,3.60
2023-03-11T21:04:00,pth,6.00
2023-03-11T21:06:00,pth,7.20
2023-03-11T21:08:00,pth,4.80
2023-03-11T21:09:00,pth,2.40
2023-03-11T21:11:00,pth,8.40
2023-03-11T21:12:00,pth,3.60
2023-03-11T21:14:00,pth,8.40
2023-03-11T21:16:00,pth,4.80
2023-03-11T21:18:00,pth,3.60
2023-03-11T21:19:00,pth,2.40
2023-03-11T21:21:00,pth,2.40
2023-03-11T21:22:00,pth,1.20
2023-03-11T21:24:00,pth,3.60
2023-03-11T21:25:00,pth,1.20
2023-03-11T21:27:00,pth,2.40
2023-03-11T21:28:00,pth,1.20
2023-03-11T21:30:00,pth,3.60
2023-03-11T21:31:00,pth,2.40
2023-03-11T21:33:00,pth,4.80
2023-03-11T21:35:00,pth,3.60
2023-03-11T21:36:00,pth,2.40
2023-03-11T21:38:00,pth,4.80
2023-03-11T21:39:00,pth,2.40
2023-03-11T21:40:00,pth,2.40
2023-03-11T21:42:00,pth,4.80
2023-03-11T21:43:00,pth,2.40
2023-03-11T21:45:00,pth,3.60
2023-03-11T21:46:00,pth,1.20
2023-03-11T21:48:00,pth,3.60
2023-03-11T21:50:00,pth,3.60
2023-03-11T21:51:00,pth,1.20
2023-03-11T21:53:00,pth,4.80
2023-03-11T21:55:00,pth,4.80
2023-03-11T21:56:00,pth,2.40
2023-03-11T21:58:00,pth,6.00
2023-03-11T22:00:00,pth,6.00
2023-03-11T22:01:00,pth,2.40
2023-03-11T22:03:00,pth,4.80
2023-03-11T22:04:00,pth,3.60
2023-03-11T22:05:00,pth,2.40
2023-03-11T22:07:00,pth,3.60
2023-03-11T22:08:00,pth,1.20
2023-03-11T22:09:00,pth,2.40
2023-03-11T22:11:00,pth,3.60
2023-03-11T22:13:00,pth,4.80
2023-03-11T22:14:00,pth,2.40
2023-03-11T22:16:00,pth,4.80
2023-03-11T22:18:00,pth,7.20
2023-03-11T22:19:00,pth,4.80
2023-03-11T22:20:00,pth,2.40
2023-03-11T22:22:00,pth,6.00
2023-03-11T22:23:00,pth,2.40
2023-03-11T22:24:00,pth,2.40
2023-03-11T22:26:00,pth,6.00
2023-03-11T22:28:00,pth,6.00
2023-03-11T22:29:00,pth,2.40
2023-03-11T22:31:00,pth,3.60
2023-03-11T22:32:00,pth,1.20
2023-03-11T22:33:00,pth,2.40
2023-03-11T22:35:00,pth,3.60
2023-03-11T22:36:00,pth,1.20
2023-03-11T22:37:00,pth,2.40
2023-03-11T22:38:00,pth,1.20
2023-03-11T22:39:00,pth,2.40
2023-03-11T22:41:00,pth,3.60
2023-03-11T22:43:00,pth,6.00
2023-03-11T22:44:00,pth,3.60
2023-03-11T22:46:00,pth,4.80